OSCAR 7 (AO-7) 1 07530U 74089B 12039.46124712 -.00000027 00000-0 10000-3 0 3016 2 07530 101.3983 41.7030 0011797 176.1142 184.0030 12.53587483703792 PHASE 3B (AO-10) 1 14129U 83058B 12038.20803426 -.00000143 00000-0 10000-3 0 9465 2 14129 27.2392 353.5349 6029648 134.0701 295.1638 2.05864930187521 UOSAT 2 (UO-11) 1 14781U 84021B 12039.81877497 .00000562 00000-0 80592-4 0 7834 2 14781 97.9713 100.3761 0010071 92.7599 267.4756 14.80305095500790 PACSAT (AO-16) 1 20439U 90005D 12039.54707216 .00000104 00000-0 54422-4 0 3922 2 20439 98.4147 346.6494 0010678 178.8022 181.3186 14.32015298151447 LUSAT (LO-19) 1 20442U 90005G 12039.52000260 .00000039 00000-0 30057-4 0 3159 2 20442 98.3806 350.0921 0011888 171.0978 189.0424 14.32235611151628 EYESAT-1 (AO-27) 1 22825U 93061C 12039.89125761 .00000218 00000-0 10248-3 0 273 2 22825 98.5604 344.8110 0007760 303.8915 56.1521 14.29428724958008 ITAMSAT (IO-26) 1 22826U 93061D 12039.56681742 .00000094 00000-0 53577-4 0 7759 2 22826 98.5552 344.8987 0008317 298.9880 61.0466 14.29698460958084 RADIO ROSTO (RS-15) 1 23439U 94085A 12038.74036561 -.00000039 00000-0 10000-3 0 4917 2 23439 64.8183 143.2577 0166373 240.8275 117.5913 11.27556671704982 JAS-2 (FO-29) 1 24278U 96046B 12039.25486216 -.00000051 00000-0 -14965-4 0 7723 2 24278 98.5759 156.9720 0350773 5.8598 354.6484 13.52976276764388 TECHSAT 1B (GO-32) 1 25397U 98043D 12039.41106702 .00000284 00000-0 14359-3 0 6981 2 25397 98.3486 24.6010 0000647 347.9592 12.1590 14.23257752705564 SEDSAT 1 (SO-33) 1 25509U 98061B 12038.88412122 .00000340 00000-0 55454-4 0 1623 2 25509 31.4324 351.0228 0352510 143.2702 219.2636 14.28665699694000 ISS (ZARYA) 1 25544U 98067A 12039.88430858 .00009695 00000-0 12861-3 0 9742 2 25544 51.6426 50.6318 0020377 22.4849 49.1896 15.58765382757856 PCSAT (NO-44) 1 26931U 01043C 12039.42071419 .00000082 00000-0 63993-4 0 9648 2 26931 67.0531 94.7818 0006072 277.5655 82.4733 14.29758588540692 SAUDISAT 1C (SO-50) 1 27607U 02058C 12039.29846289 .00000592 00000-0 11014-3 0 6836 2 27607 64.5601 329.9664 0085151 273.8393 85.2975 14.72206298490842 CUTE-1 (CO-55) 1 27844U 03031E 12039.08008200 .00000181 00000-0 10384-3 0 3055 2 27844 98.7045 49.3461 0008982 237.5232 122.5082 14.20958094446419 CUBESAT XI-IV (CO-57) 1 27848U 03031J 12038.63881307 .00000155 00000-0 92011-4 0 2537 2 27848 98.7140 48.1902 0008688 242.5146 117.5161 14.20718273446290 MOZHAYETS 4 (RS-22) 1 27939U 03042A 12039.74987348 .00000363 00000-0 77867-4 0 659 2 27939 97.8222 247.1278 0012924 319.5301 40.4937 14.63893038446942 ECHO (AO-51) 1 28375U 04025K 12038.53222573 .00000163 00000-0 61364-4 0 1883 2 28375 98.1284 10.0119 0084647 76.4715 284.5888 14.40892080399954 HAMSAT (VO-52) 1 28650U 05017B 12038.61462278 .00001074 00000-0 13864-3 0 194 2 28650 97.6141 75.8831 0027689 109.0709 251.3489 14.82662497365624 CUBESAT XI-V (CO-58) 1 28895U 05043F 12039.12353404 .00000441 00000-0 99929-4 0 937 2 28895 97.9354 270.9773 0017248 197.1498 162.9104 14.60474595334678 CUTE-1.7+APD II (CO-65) 1 32785U 08021C 12039.34546802 .00001201 00000-0 15511-3 0 2233 2 32785 97.8180 103.3929 0015592 123.4912 236.7782 14.82670514204527 DELFI-C3 (DO-64) 1 32789U 08021G 12039.61034937 .00002788 00000-0 33321-3 0 2249 2 32789 97.8307 105.6501 0016037 121.2260 239.0543 14.84902292204647 YUBILEINY (RS-30) 1 32953U 08025A 12039.46223641 .00000010 00000-0 00000+0 0 5031 2 32953 82.5026 15.8011 0017463 229.8229 130.1322 12.43020736168441 PRISM 1 33493U 09002B 12039.82882890 .00001984 00000-0 24936-3 0 4065 2 33493 98.1491 177.5320 0019041 359.6315 0.4882 14.83167466164579 STARS 1 33498U 09002G 12039.49545240 .00000867 00000-0 14425-3 0 6397 2 33498 98.0983 156.0321 0013607 122.2283 238.0244 14.72534316163437 KKS-1 1 33499U 09002H 12039.22595277 .00000644 00000-0 11182-3 0 6530 2 33499 98.0997 154.6635 0010867 122.3361 237.8909 14.71509174163313 SWISSCUBE 1 35932U 09051B 12039.73215779 .00005302 00000-0 12986-2 0 4019 2 35932 98.3305 143.3390 0009029 145.0994 215.0602 14.52847347126063 BEESAT 1 35933U 09051C 12039.75354836 .00007908 00000-0 19109-2 0 5671 2 35933 98.3267 143.7295 0004884 147.6174 212.4940 14.53351327126112 ITUPSAT1 1 35935U 09051E 12039.26571357 .00001956 00000-0 48744-3 0 8137 2 35935 98.3379 143.3831 0010184 143.1496 217.0238 14.52722758125982 HOPE-1 (HO-68) 1 36122U 09072B 12039.77474936 -.00000044 00000-0 00000+0 0 1792 2 36122 100.3809 101.6448 0007707 46.5006 313.6738 13.16292884103361 JUGNU 1 37839U 11058B 12039.42707036 .00000620 00000-0 19019-3 0 834 2 37839 19.9609 64.3106 0018167 234.5516 125.3093 14.12023255 16886 SRMSAT 1 37841U 11058D 12039.23456019 .00000264 00000-0 00000+0 0 838 2 37841 19.9733 67.8043 0012316 204.7573 155.2266 14.10113333 16820 RAX-2 1 37853U 11061D 12038.92915405 .00006122 00000-0 49758-3 0 925 2 37853 101.7122 19.9377 0251381 1.8448 358.3619 14.78751811 15142 AUBIESAT-1 (AO-71) 1 37854U 11061E 12038.91374361 .00007270 00000-0 58100-3 0 932 2 37854 101.7138 20.0041 0252499 1.4540 358.7328 14.79035696 15127 M-CUBED & EXP-1 PRIME 1 37855U 11061F 12039.52587726 .00006593 00000-0 52760-3 0 935 2 37855 101.7176 20.8899 0253192 359.7641 0.3399 14.78959276 15217 CHIBIS-M (RS-39) 1 38051U 11062C 12039.79134259 .00007353 00000-0 32981-3 0 447 2 38051 51.6499 55.3775 0011312 300.4756 45.7731 15.22153024 2248